Wind_Speed
16 15 15 14 14 14 14 14 13 13 12 12 12 12 11 10 9 9 8 7 7 6 5 5 5 5 5 5 4 4 5 5 5 5 5 5 5 5 5 4 4 4 4
18 17 16 16 15 15 15 15 15 14 14 14 13 13 12 11 11 10 9 8 7 6 6 5 5 5 5 5 4 4 4 4 4 4 5 4 4 4 3 4 3 3 3
20 19 18 18 17 16 17 16 16 15 15 15 15 15 14 13 12 11 10 9 8 7 6 6 6 6 6 5 5 4 4 3 3 4 4 4 3 3 2 2 2 2 2
22 21 20 20 19 18 18 18 17 17 17 17 17 16 15 15 14 13 11 11 10 8 7 7 7 7 6 6 6 5 4 4 4 3 3 3 3 2 2 1 1 1 1
23 23 22 21 21 21 20 19 19 19 18 18 18 18 17 16 15 14 13 12 11 10 9 8 8 7 7 7 7 6 5 4 4 4 4 4 3 3 2 2 1 1 0
24 24 24 23 23 22 22 21 21 20 20 20 20 19 18 18 17 16 15 14 13 12 11 10 9 9 8 8 8 7 7 6 5 5 5 4 4 4 3 3 2 2 1
25 25 25 25 25 24 24 23 22 22 21 21 21 21 20 19 19 18 17 16 14 13 12 11 11 10 10 9 9 9 8 8 7 6 5 5 5 5 5 4 4 3 3
26 26 26 26 26 26 25 24 24 23 23 22 22 22 22 21 21 20 19 18 17 15 14 13 12 12 11 11 10 10 9 9 8 8 7 6 6 6 6 5 5 5 5
28 28 28 28 27 27 27 26 26 25 24 24 23 23 23 22 22 22 21 20 19 18 17 15 15 14 13 13 12 12 11 11 10 9 9 8 8 7 7 7 7 7 7
30 30 29 30 29 29 28 28 27 27 26 25 25 24 24 24 23 23 23 22 21 20 19 18 17 16 15 15 14 13 13 13 11 11 11 10 9 9 9 9 8 8 8
32 31 31 31 31 31 30 30 29 29 28 27 26 26 26 25 24 24 24 24 23 22 21 20 19 18 18 17 16 15 15 15 14 13 12 12 11 11 11 10 10 9 9
35 34 34 32 32 33 33 32 32 31 31 30 29 28 27 27 26 26 25 25 25 24 23 22 21 20 20 19 18 18 17 17 17 15 14 14 13 13 13 12 11 11 11
37 36 37 35 34 34 35 34 34 33 33 32 31 30 29 29 28 27 27 26 26 26 25 24 23 22 22 21 21 20 19 19 19 18 16 16 16 15 14 14 13 13 12
39 39 39 38 37 36 36 36 36 35 35 34 33 32 32 31 30 29 28 28 27 27 26 26 25 25 24 24 23 22 21 20 20 20 19 18 17 16 16 15 15 15 14
41 41 41 41 40 39 38 37 37 37 37 36 35 34 33 33 32 31 31 30 29 29 28 27 27 26 26 25 25 24 23 23 22 22 21 20 19 18 17 17 17 16 16
43 43 42 42 42 42 41 40 39 39 39 38 38 37 36 35 34 33 33 32 32 31 30 29 28 28 27 27 26 26 25 25 24 23 23 22 21 20 20 19 19 18 18
45 45 44 44 44 44 44 43 43 42 41 41 40 39 38 37 36 35 35 35 34 33 32 31 30 29 29 28 28 28 27 27 26 25 24 24 23 23 22 22 21 20 20
47 47 46 46 46 46 46 46 46 45 43 43 43 42 41 40 39 38 37 37 36 35 34 33 32 31 31 30 29 29 29 29 28 27 27 26 25 25 24 23 23 22 22
48 48 48 48 48 48 48 48 47 46 46 45 46 45 44 43 42 40 39 39 38 37 37 35 34 33 32 31 31 30 30 30 29 29 28 28 27 27 26 25 24 24 24
50 50 50 50 49 49 49 49 49 48 47 47 47 47 46 45 44 43 42 41 40 40 39 38 36 36 34 33 33 32 32 31 30 30 29 29 29 29 28 28 27 26 26
50 51 51 51 51 51 51 51 51 50 49 48 48 48 48 48 47 46 45 43 42 42 41 40 39 38 37 36 35 34 34 33 32 32 31 31 30 30 30 30 29 28 27
50 50 51 51 51 51 51 52 52 52 51 51 49 50 49 48 48 48 47 46 45 44 43 42 41 40 38 38 37 36 35 34 34 33 33 32 32 31 31 31 31 30 29
49 50 51 51 51 51 51 52 53 53 53 53 53 50 49 50 49 50 49 48 48 47 45 44 43 42 41 40 39 38 37 36 36 35 35 34 33 33 33 33 32 31 31
48 48 49 50 50 51 51 52 53 54 54 54 53 53 52 51 50 51 51 49 48 48 48 47 46 45 43 42 41 40 40 39 38 37 36 36 35 34 34 34 33 33 32
47 47 48 50 50 50 50 51 53 53 54 55 54 53 53 51 50 51 51 51 51 50 50 49 48 47 46 45 43 42 42 41 40 39 38 38 36 35 35 35 35 34 34
46 47 48 49 50 50 50 51 52 53 54 55 55 56 55 54 52 51 51 51 51 50 50 50 50 49 48 46 45 45 44 43 42 41 40 39 39 37 36 36 36 35 35
Wind_Direction
222 219 217 216 212 207 207 206 203 203 203 200 198 195 192 188 186 185 181 174 169 168 168 165 161 159 154 147 136 125 119 116 120 126 125 119 113 108 101 92 89 85 74
224 222 219 217 216 212 212 211 208 208 208 206 205 203 200 197 194 193 192 188 184 182 179 177 173 170 168 161 153 144 134 125 130 135 134 129 121 113 102 94 86 76 65
224 223 221 219 218 216 216 215 213 212 211 210 210 209 206 204 203 201 199 197 194 193 193 191 186 185 183 180 176 171 161 150 146 149 148 145 142 133 119 103 90 72 56
226 224 223 222 220 219 218 218 217 215 214 214 213 213 211 210 209 207 207 205 203 201 199 198 197 199 198 195 193 190 187 184 175 171 168 168 170 168 161 139 108 76 52
228 227 226 224 224 222 220 220 219 219 217 216 216 216 215 215 214 213 213 212 211 210 209 206 206 207 207 204 204 204 206 203 199 193 192 195 194 196 200 201 206 207 10
229 228 227 226 225 224 223 223 223 221 219 218 218 218 218 217 217 217 216 216 216 216 216 215 214 215 214 212 212 213 215 215 210 209 213 217 216 214 216 220 221 230 264
231 230 228 227 226 226 226 226 225 224 223 222 222 221 220 221 220 220 219 219 219 220 221 221 220 221 221 218 219 221 221 219 217 219 221 224 225 229 230 236 239 244 262
231 231 230 229 228 227 227 228 227 226 225 224 224 224 224 224 223 223 223 222 222 223 225 225 225 225 226 224 223 223 223 223 223 224 227 230 234 238 241 243 249 256 265
233 232 232 230 229 229 228 228 228 227 226 226 226 227 226 227 225 225 225 226 225 226 227 228 229 229 228 228 226 226 227 227 228 230 234 237 239 241 244 248 254 261 265
234 234 234 232 231 230 230 230 229 229 229 228 227 227 228 228 228 227 227 228 229 229 230 231 231 231 230 230 230 231 233 233 233 236 239 240 242 244 247 252 257 260 264
234 234 234 233 232 232 231 231 232 231 230 231 230 229 229 229 229 229 229 229 230 231 232 232 232 232 232 233 233 234 236 237 237 238 240 242 244 247 250 254 258 259 261
235 234 234 234 233 233 233 232 233 232 232 232 232 232 232 231 230 231 231 231 231 232 233 233 233 234 234 235 235 236 237 239 239 240 242 244 246 249 251 254 257 260 262
236 235 235 235 234 234 234 233 233 232 233 233 232 233 233 233 232 233 234 233 233 234 234 234 235 235 236 236 237 238 238 240 241 242 243 246 248 250 251 253 256 258 262
237 236 236 235 235 235 234 234 234 233 233 233 233 233 234 234 234 234 235 235 236 236 236 236 236 237 237 238 239 240 240 241 242 243 244 246 249 250 252 255 257 258 261
237 237 236 235 235 236 236 235 235 235 234 234 234 234 235 235 235 235 236 236 237 238 239 238 237 238 239 240 240 241 242 242 243 244 245 246 248 249 252 256 257 258 260
238 237 236 236 236 236 236 236 236 236 235 235 235 235 235 236 236 236 236 236 237 238 239 240 240 240 240 241 242 242 243 243 245 244 245 247 248 250 253 257 259 259 260
238 238 238 237 237 237 237 237 237 237 237 236 236 236 236 236 236 236 236 237 237 238 238 240 241 242 243 243 243 244 244 245 245 245 246 247 250 251 253 256 258 259 260
239 239 239 238 238 237 237 238 238 238 237 236 237 237 237 237 236 236 236 237 238 238 239 240 241 243 244 244 244 243 244 245 246 246 247 248 250 252 253 255 256 258 259
239 239 239 239 238 238 238 238 238 239 238 237 237 238 237 237 237 236 237 238 238 239 239 240 241 243 244 245 245 244 245 245 246 247 248 249 250 252 253 254 256 257 258
240 239 239 239 238 238 237 237 237 238 238 238 238 238 237 237 238 238 238 238 238 239 240 241 242 242 244 245 245 245 245 245 246 247 248 249 250 252 253 254 256 257 259
241 240 239 239 238 237 237 237 237 237 237 237 238 239 238 238 237 238 238 238 239 239 240 241 242 243 244 245 246 246 246 246 247 248 249 250 251 252 253 254 256 256 258
241 240 239 239 238 238 237 237 237 237 237 237 238 239 238 238 239 238 239 239 239 239 239 240 241 243 243 244 246 246 247 247 248 248 249 250 251 253 253 255 255 255 256
240 239 239 239 239 239 238 237 237 236 237 237 238 239 238 238 238 238 238 239 239 240 240 241 242 243 244 244 245 246 246 247 247 249 250 250 252 253 254 255 255 255 256
239 239 238 238 239 239 239 238 237 236 237 237 238 239 238 239 239 239 237 238 240 241 241 241 241 243 244 244 245 246 247 247 248 249 250 251 253 254 254 254 254 255 257
239 239 238 238 239 238 238 238 238 237 237 238 238 239 239 239 239 239 239 239 240 240 241 241 241 242 243 245 245 246 247 248 248 249 251 253 254 254 254 254 255 256 257
240 239 239 239 239 239 238 238 238 238 238 238 239 239 240 240 240 239 239 239 239 240 241 241 242 243 244 245 246 246 247 247 248 249 250 252 253 253 253 253 254 256 257
Height
5850 5851 5852 5854 5855 5856 5857 5858 5859 5860 5862 5863 5864 5865 5866 5866 5867 5868 5868 5869 5869 5870 5870 5870 5871 5871 5872 5872 5872 5872 5872 5872 5872 5872 5873 5873 5872 5872 5872 5872 5872 5872 5871
5848 5849 5850 5851 5852 5853 5855 5856 5858 5859 5860 5861 5862 5863 5864 5865 5866 5867 5867 5868 5869 5869 5869 5870 5870 5871 5871 5872 5872 5872 5872 5873 5873 5873 5873 5873 5873 5873 5873 5873 5872 5872 5872
5845 5846 5847 5849 5850 5851 5853 5854 5855 5857 5858 5859 5861 5862 5863 5864 5865 5866 5866 5867 5868 5868 5869 5869 5870 5870 5871 5872 5872 5872 5872 5873 5873 5873 5873 5873 5873 5873 5873 5873 5873 5872 5872
5841 5843 5844 5846 5847 5849 5850 5852 5853 5854 5856 5857 5859 5860 5861 5862 5863 5864 5865 5866 5866 5867 5868 5868 5869 5870 5871 5871 5872 5872 5872 5872 5873 5873 5873 5873 5873 5873 5873 5873 5873 5872 5872
5838 5839 5841 5843 5844 5846 5847 5849 5850 5852 5853 5855 5856 5858 5859 5860 5861 5862 5863 5864 5865 5866 5867 5867 5868 5869 5870 5870 5871 5871 5872 5872 5872 5872 5872 5872 5872 5873 5873 5872 5872 5872 5872
5834 5835 5837 5839 5840 5842 5844 5846 5847 5849 5850 5852 5853 5855 5856 5858 5859 5860 5861 5862 5863 5864 5865 5866 5867 5868 5868 5869 5870 5870 5870 5871 5871 5871 5872 5872 5872 5872 5872 5872 5872 5872 5871
5829 5831 5833 5835 5836 5838 5840 5842 5844 5846 5847 5849 5850 5852 5853 5855 5856 5857 5859 5860 5861 5862 5863 5864 5865 5866 5867 5867 5868 5869 5869 5870 5870 5870 5871 5871 5871 5871 5871 5871 5871 5871 5871
5824 5826 5828 5830 5832 5834 5836 5838 5840 5842 5844 5845 5847 5848 5850 5851 5853 5854 5856 5857 5858 5860 5861 5862 5863 5864 5865 5866 5866 5867 5868 5868 5869 5869 5869 5870 5870 5870 5870 5870 5870 5870 5870
5819 5821 5823 5825 5827 5829 5831 5834 5836 5838 5839 5841 5843 5845 5846 5848 5849 5851 5852 5854 5855 5857 5858 5859 5860 5861 5862 5863 5864 5865 5866 5866 5867 5867 5868 5868 5868 5868 5869 5869 5869 5869 5869
5813 5815 5818 5820 5822 5824 5826 5828 5831 5833 5835 5837 5839 5840 5842 5844 5845 5847 5849 5850 5852 5853 5855 5856 5857 5858 5859 5860 5862 5863 5863 5864 5865 5865 5866 5866 5866 5866 5867 5867 5867 5867 5867
5807 5809 5811 5814 5816 5818 5820 5823 5825 5827 5830 5832 5834 5836 5838 5839 5841 5843 5844 5846 5848 5849 5851 5852 5854 5855 5856 5857 5858 5860 5861 5861 5862 5863 5863 5864 5864 5864 5865 5865 5865 5865 5865
5799 5802 5804 5807 5809 5812 5814 5816 5819 5821 5824 5826 5828 5830 5832 5834 5836 5838 5840 5841 5843 5845 5847 5848 5849 5851 5852 5854 5855 5856 5857 5858 5859 5860 5860 5861 5861 5862 5862 5862 5862 5862 5862
5792 5795 5797 5800 5802 5805 5807 5810 5812 5815 5817 5820 5823 5825 5827 5829 5831 5833 5835 5836 5838 5840 5842 5843 5845 5846 5848 5849 5851 5852 5853 5854 5855 5856 5857 5858 5858 5859 5859 5859 5859 5860 5860
5784 5786 5789 5792 5795 5797 5800 5803 5805 5808 5810 5813 5816 5819 5821 5823 5825 5827 5829 5831 5833 5835 5837 5838 5840 5842 5843 5845 5846 5848 5849 5850 5851 5852 5853 5854 5855 5855 5855 5856 5856 5856 5857
5774 5777 5780 5783 5786 5789 5792 5795 5798 5800 5803 5806 5809 5812 5814 5817 5819 5821 5823 5825 5827 5829 5831 5833 5835 5836 5838 5840 5841 5843 5844 5846 5847 5848 5849 5850 5851 5851 5852 5852 5852 5853 5853
5764 5768 5771 5774 5777 5780 5783 5787 5789 5792 5795 5798 5801 5804 5807 5810 5812 5814 5817 5819 5821 5823 5825 5827 5829 5831 5833 5834 5836 5838 5839 5841 5842 5843 5844 5845 5846 5847 5848 5848 5848 5849 5849
5754 5758 5761 5764 5767 5771 5774 5777 5781 5784 5787 5790 5793 5796 5799 5802 5804 5807 5810 5812 5814 5816 5819 5821 5823 5825 5826 5828 5830 5832 5833 5835 5836 5838 5839 5840 5841 5842 5843 5844 5844 5844 5845
5743 5747 5750 5754 5757 5760 5764 5767 5771 5774 5778 5781 5783 5787 5790 5793 5796 5799 5802 5804 5807 5809 5811 5814 5816 5818 5820 5822 5824 5825 5827 5829 5830 5832 5833 5835 5836 5837 5838 5839 5839 5840 5840
5731 5735 5739 5742 5746 5749 5752 5756 5760 5764 5768 5771 5774 5777 5780 5784 5787 5790 5793 5796 5799 5801 5804 5806 5809 5811 5813 5815 5817 5819 5821 5822 5824 5826 5827 5829 5830 5831 5832 5833 5834 5834 5835
5718 5722 5726 5730 5733 5737 5740 5744 5748 5752 5756 5760 5764 5767 5771 5774 5778 5781 5784 5787 5790 5793 5796 5798 5801 5804 5806 5808 5810 5812 5814 5815 5817 5819 5820 5822 5823 5825 5826 5827 5828 5829 5829
5705 5709 5713 5716 5720 5724 5728 5732 5736 5740 5744 5748 5752 5756 5760 5764 5767 5771 5774 5778 5781 5784 5787 5790 5792 5795 5798 5800 5802 5804 5806 5808 5810 5812 5814 5815 5816 5818 5819 5820 5822 5823 5823
5691 5695 5699 5703 5707 5711 5715 5720 5724 5729 5733 5737 5741 5744 5748 5753 5757 5760 5764 5767 5771 5774 5777 5780 5783 5786 5789 5792 5794 5796 5798 5801 5803 5804 5806 5808 5809 5811 5812 5813 5815 5816 5816
5679 5682 5686 5690 5694 5698 5702 5706 5711 5716 5720 5725 5729 5732 5736 5741 5744 5748 5752 5756 5760 5764 5767 5771 5774 5777 5780 5782 5785 5788 5790 5793 5795 5797 5798 5800 5801 5803 5804 5806 5807 5808 5809
5666 5670 5674 5678 5682 5686 5689 5694 5698 5703 5708 5712 5716 5720 5725 5728 5732 5737 5741 5745 5749 5753 5756 5760 5763 5766 5769 5772 5775 5778 5781 5784 5786 5788 5790 5792 5793 5795 5796 5798 5799 5801 5802
5654 5658 5661 5665 5669 5673 5677 5681 5685 5690 5695 5699 5704 5708 5713 5716 5720 5725 5729 5733 5737 5741 5745 5749 5752 5756 5759 5762 5765 5768 5771 5774 5776 5779 5781 5783 5785 5786 5788 5789 5791 5792 5793
5642 5645 5649 5653 5657 5660 5664 5668 5672 5677 5682 5687 5691 5696 5700 5705 5709 5712 5716 5721 5725 5729 5733 5737 5741 5744 5748 5751 5755 5758 5761 5764 5767 5769 5772 5774 5776 5778 5779 5781 5782 5784 5785